Content
SEND FEEDBACK

Daily
Averages
Monthly
Summary
Italy

REGGIO DI CALABRIA, ITALY


Home > Europe > Italy
Elevation: 69 feet     Latitude: 38 04N     Longitude: 015 39E

WEATHER
 
SELECT A DAY
Number of Records: 117,627;   Date Range: 7/1/96 - 8/10/14
 
SHARE

PRINT THIS DATA

[ ← Previous Day ]
WEATHER ALMANAC - FEBRUARY 24, 2013
[ Next Day → ]
[ °C ]   °F
Weather ElementAverageHighLow
Temperature50.5 °F57.2 °F (8:50 am)46.4 °F (4:11 pm)
Dewpoint41.9 °F51.8 °F (7:50 am)35.6 °F (5:50 pm)
Humidity72.8 %94 % (7:50 am)62 % (1:50 pm)
Barometer29.85 in29.98 in (10:50 pm)29.65 in (6:50 am)
Wind Speed12.7 mph18.4 mph (11:50 am)
Weather ElementAverage
Visibility6.2 mi
Wind DirectionE (90.5 °)

Weather ElementTotal
Precipitation---
Heating Degree Days13.2 (Base 65)
Growing Degree Days1.8 (Base 50)
Averaged from 19 records on February 24, 2013
WEATHER CONDITIONS BREAKOUT
WIND DIRECTION BREAKOUT
WEATHER BY HOUR - FEBRUARY 24, 2013
[ °C ]   °F
Local TimeTemperatureDewpointHumidityBarometerVisibilityWind DirectionWind SpeedGust SpeedPrecipitationEventsConditions
6:50 AM53.6 °F50.0 °F88 %29.65 in6.2 miVariable2.3 mphScattered Clouds
7:50 AM53.6 °F51.8 °F94 %29.68 in6.2 miNorth (350°)5.8 mphPartly Cloudy
8:50 AM57.2 °F50.0 °F77 %29.74 in6.2 miNorth (360°)15.0 mphMostly Cloudy
9:50 AM53.6 °F48.2 °F82 %29.77 in6.2 miNNW (340°)17.3 mphMostly Cloudy
10:50 AM51.8 °F44.6 °F76 %29.80 in6.2 miNNE (20°)17.3 mphMostly Cloudy
11:50 AM53.6 °F44.6 °F72 %29.83 in6.2 miNorth (10°)18.4 mphMostly Cloudy
12:50 PM53.6 °F44.6 °F72 %29.83 in6.2 miNorth (10°)17.3 mphMostly Cloudy
1:50 PM53.6 °F41.0 °F62 %29.83 in6.2 miNorth (10°)16.1 mphMostly Cloudy
2:50 PM51.8 °F42.8 °F71 %29.83 in6.2 miNorth (360°)16.1 mphMostly Cloudy
3:50 PM48.2 °F42.8 °F82 %29.86 in6.2 miNorth (10°)16.1 mphRainLight Rain
4:11 PM46.4 °F41.0 °F81 %29.86 in6.2 miNorth (10°)18.4 mphScattered Clouds
4:50 PM46.4 °F39.2 °F76 %29.86 in6.2 miNE (40°)13.8 mphScattered Clouds
5:50 PM48.2 °F35.6 °F62 %29.89 in6.2 miNNE (20°)12.7 mphPartly Cloudy
6:50 PM48.2 °F35.6 °F62 %29.92 in6.2 miNorth (10°)10.4 mphPartly Cloudy
7:50 PM48.2 °F35.6 °F62 %29.92 in6.2 miNNE (20°)11.5 mphPartly Cloudy
8:50 PM48.2 °F35.6 °F62 %29.95 in6.2 miNE (40°)9.2 mphPartly Cloudy
9:50 PM48.2 °F37.4 °F66 %29.95 in6.2 miNE (40°)9.2 mphPartly Cloudy
10:50 PM48.2 °F37.4 °F66 %29.98 in6.2 miNE (40°)8.1 mphPartly Cloudy
11:50 PM46.4 °F37.4 °F71 %29.98 in6.2 miNNE (30°)6.9 mphPartly Cloudy
Hourly data recorded from LICR, located miles away from Reggio di Calabria, Italy







STORIES FROM OUR PARTNERS